Vineland (AU8), Ontario

1:44 AM EDT on April 25, 2017 (GMT -0400)
Vineland (AU8)

Weather History for CXVN - October, 2013

Change the Weather History Date:

Monday, October 7, 2013

  Actual Average (CYSN) Record (CYSN)
Temperature  
Mean Temperature 58 °F -  
Max Temperature 67 °F 60 °F 75 °F (2004)
Min Temperature 50 °F 46 °F 35 °F (1999)
Degree Days  
Heating Degree Days 6    
Growing Degree Days 8 (Base 50)    
Moisture  
Dew Point 50 °F    
Average Humidity 75    
Maximum Humidity 94    
Minimum Humidity 35    
Precipitation  
Precipitation 0.28 in - - ()
Sea Level Pressure  
Sea Level Pressure 29.73 in    
Wind  
Wind Speed 8 mph ()    
Max Wind Speed 22 mph    
Max Gust Speed 34 mph    
Averages and records for this station are not official NWS values.
T = Trace of Precipitation, MM = Missing Value Source: Averaged Metar Reports

Daily Weather History Graph

Daily Weather History Graph

Search for Another Location

Airport or City:

Trip Planner

Search our weather history database for the weather conditions in past years. The results will help you decide how hot, cold, wet, or windy it might be!

Date:

Astronomy

Oct. 07, 2013 Rise Set
Actual Time 7:22 AM EDT 6:47 PM EDT
Civil Twilight 6:53 AM EDT 7:16 PM EDT
Nautical Twilight 6:20 AM EDT 7:49 PM EDT
Astronomical Twilight 5:47 AM EDT 8:22 PM EDT
Moon 10:15 AM EDT (10/7) 8:25 PM EDT (10/7)
Length of Visible Light 12h 22m
Length of Day
11h 25m
Waxing Crescent, 8% of the Moon is Illuminated
Oct 7
Waxing Crescent
Oct 11
First Quarter
Oct 18
Full
Oct 26
Last Quarter
Nov 3
New

Hourly Weather History & Observations

Time (EDT) Temp. Dew Point Humidity Pressure Visibility Wind Dir Wind Speed Gust Speed Precip Events Conditions
12:00 AM 64.8 °F 63.1 °F 94% 29.65 in - West 8.1 mph - N/A   Unknown
1:00 AM 63.3 °F 61.3 °F 93% 29.64 in - NW 2.3 mph - N/A   Unknown
2:00 AM 63 °F 61 °F 92% 29.62 in - South 2.3 mph - -  
2:00 AM 63.1 °F 61.3 °F 94% 29.62 in - South 2.3 mph - N/A   Unknown
3:00 AM 67.5 °F 63.0 °F 85% 29.61 in - WSW 6.9 mph - N/A   Unknown
4:00 AM 62.2 °F 54.9 °F 77% 29.62 in - West 11.5 mph - N/A   Unknown
5:00 AM 58.3 °F 54.3 °F 87% 29.64 in - WSW 10.4 mph - 0.02 in   Unknown
6:00 AM 57.6 °F 55.2 °F 92% 29.66 in - West 5.8 mph - 0.09 in   Unknown
7:00 AM 57.4 °F 55.2 °F 92% 29.65 in - WSW 3.5 mph - 0.11 in   Unknown
8:00 AM 57 °F 55 °F 89% 29.65 in - West 4.6 mph - -  
8:00 AM 57.2 °F 54.7 °F 91% 29.65 in - West 4.6 mph - 0.05 in   Unknown
9:00 AM 56.3 °F 53.8 °F 91% 29.65 in - WSW 4.6 mph - 0.03 in   Unknown
10:00 AM 55.0 °F 51.4 °F 88% 29.67 in - WSW 5.8 mph - 0.01 in   Unknown
11:00 AM 56.7 °F 49.3 °F 76% 29.68 in - West 13.8 mph 24.2 mph N/A   Unknown
12:00 PM 59.2 °F 43.2 °F 55% 29.69 in - West 18.4 mph 26.5 mph N/A   Unknown
1:00 PM 58.8 °F 42.6 °F 55% 29.69 in - WSW 15.0 mph 24.2 mph N/A   Unknown
2:00 PM 61 °F 40 °F 35% 29.67 in - West 21.9 mph - -  
2:00 PM 61.2 °F 40.5 °F 47% 29.67 in - West 21.9 mph 34.5 mph N/A   Unknown
3:00 PM 60.8 °F 40.5 °F 47% 29.70 in - West 17.3 mph 27.6 mph N/A   Unknown
4:00 PM 59.9 °F 37.6 °F 44% 29.73 in - West 18.4 mph 29.9 mph N/A   Unknown
5:00 PM 60.3 °F 41.2 °F 49% 29.76 in - West 15.0 mph 21.9 mph N/A   Unknown
6:00 PM 58.6 °F 42.3 °F 55% 29.80 in - West 16.1 mph 24.2 mph N/A   Unknown
7:00 PM 54.1 °F 47.8 °F 79% 29.86 in - WNW 13.8 mph 23.0 mph N/A   Unknown
8:00 PM 54 °F 47 °F 71% 29.90 in - West 8.1 mph - -  
8:00 PM 54.1 °F 47.3 °F 78% 29.90 in - West 8.1 mph - N/A   Unknown
9:00 PM 55.2 °F 44.4 °F 67% 29.95 in - NW 10.4 mph 18.4 mph N/A   Unknown
10:00 PM 50.4 °F 45.3 °F 83% 29.98 in - WSW 4.6 mph - N/A   Unknown
11:00 PM 50.2 °F 46.4 °F 87% 30.02 in - SW 5.8 mph - N/A   Unknown